Other Surface Observations
Issued by NWS

Home | Current Version | Previous Version | Text Only | Print | Product List | Glossary On
Versions: 1 2 3 4 5 6 7 8 9 10 11 12 13 14 15 16 17 18 19 20 21 22 23 24 25 26 27 28 29 30 31 32 33 34 35 36 37 38 39 40 41 42 43 44 45 46 47 48 49 50
000
SXUS52 KTAE 192118
OSOTAE
OSOTAE
North Florida/South Alabama/Southwest Georgia Weather Roundup
National Weather Service Tallahassee Florida
400 PM EST FRI DEC 19 2014

Note: "fair" indicates few or no clouds below 12,000 feet with no
significant weather and/or obstructions to visibility.

!FLZ017-115-028-034-025-192200
...North Florida...

CITY           SKY/WX    TMP DP  RH WIND       PRES   REMARKS
TALLAHASSEE    PTSUNNY   55  46  71 N3        30.08R
APALACHICOLA   PTSUNNY   63  43  48 E5        30.05F
PERRY          PTSUNNY   65  38  35 E3        30.07F
CROSS CITY       N/A     68  36  30 N3        30.07F
JACKSONVILLE   MOSUNNY   70  36  28 NE3       30.08S
$$

!FLZ112-006-005-002-011-192200
...Florida Panhandle...

CITY           SKY/WX    TMP DP  RH WIND       PRES   REMARKS
MARIANNA       CLOUDY    59  40  49 E6        30.07F
BONIFAY        FAIR      59  39  47 VRB3      30.09F
PANAMA CITY NW CLOUDY    53  45  74 N6        30.06F
TYNDALL AFB    LGT RAIN  54  48  82 VRB3      30.08S
TYND DRONE APT MOCLDY    54  50  87 MISG      30.06S
DE FUNIAK SPR  FAIR      55  43  63 CALM      30.07F
EGLIN AFB      PTSUNNY   53  46  78 NE6       30.08F
DESTIN         CLOUDY    54  47  77 NE7       30.08S
HURLBURT       CLOUDY    52  43  71 NE6       30.07F
CRESTVIEW      PTSUNNY   54  46  74 SE3       30.10F
PENSACOLA      CLOUDY    52  44  74 NE6       30.07F
$$

!ALZ063-066-192200
...South Alabama...

CITY           SKY/WX    TMP DP  RH WIND       PRES   REMARKS
DOTHAN         CLOUDY    58  37  45 NE6       30.11F
OZARK CAIRNS   CLOUDY    58  37  45 NE7       30.06F
FT RUCKER HELI CLOUDY    58  37  45 E5        30.05F
RUCKER HELI 3  FAIR      57  37  48 E7        30.08F
RUCKER HELI 2  PTSUNNY   57  38  48 NE7       30.06F
FLORALA APT    PTSUNNY   59  36  42 E6        30.08F
ANDALUSIA      PTSUNNY   62  32  32 E6        30.08F
TROY           CLOUDY    55  37  50 N7        30.09F
EUFALA         FAIR      57  38  48 CALM      30.08F
MOBILE         RAIN      50  46  86 N6        30.09S FOG
$$

!GAZ120>161-192200
...Southwest and South Central Georgia...

CITY           SKY/WX    TMP DP  RH WIND       PRES   REMARKS
THOMASVILLE    FAIR      66  39  37 NE5       30.07S
BAINBRIDGE     MOSUNNY   63  43  48 N5        30.08F
MOODY AFB      CLOUDY    65  40  39 E3        30.07F
VALDOSTA       LGT RAIN  64  40  41 SE6       30.06F
MOULTRIE       CLOUDY    63  41  45 CALM      30.08R
BLAKELY        CLOUDY    61  36  39 CALM      30.10S
ALBANY         MOSUNNY   59  37  44 CALM      30.11F
TIFTON         FAIR      61  35  38 CALM      30.07F
FITZGERALD     FAIR      62  32  32 CALM      30.10F
CORDELE        FAIR      63  34  34 CALM      30.10F
AMERICUS       FAIR      59  36  41 CALM      30.10F
HOMERVILLE     FAIR      64  43  45 CALM      30.09F
$$

!GMZ750-755-770-775-192200
...Coastal and Buoy Obs...

STATION/POSITION TIME  TEMP    WIND        PRES    VSBY  WAVE
                       AIR SEA DIR/SP/G                  HT/PER
                 (UTC) (F)     (DEG/KT/KT) (MB)    (MI)  (FT/S)
KEATON BEACH     2100   59     270/  2/  2 1018.5F
CEDAR KEY        2100   63     250/  2/  3 1018.6F
C TOWER          2100   60      80/ 11/ 11 1017.8F
APALACHICOLA BUO 2100   64 71   80/  8/ 12 1018.2R         1/ 3
PANAMA CITY BUOY 2019   67 75  100/ 12/ 14 1017.6F         2/ 4
MOBILE BUOY      2100   68 74  120/ 21/ 25 1015.7F         5/ 6
ORANGE BCH AL BU 2100   61 68   80/ 14/ 16 1016.9R         3/ 4
$$



USA.gov is the U.S. government's official web portal to all federal, state and local government web resources and services.